User: anonymous   Login
Location: Utrecht
(52.0917°N, 5.1178°E)
Time: 10:18:52
(UTC+02:00)
Language:

Hubble Space Telescope - Orbit

View from above orbital plane
View from above orbital plane
View from above satellite
View from above satellite

Ground track
Ground track

The orbit data is extracted from the following two-line orbital elements,

1 20580U 90037B   19197.93184994 +.00000346 +00000-0 +10101-4 0  9998
2 20580 028.4705 025.1989 0002854 069.8430 076.3814 15.09245112405071
Epoch (UTC): 16 July 2019 22:21:51
Eccentricity: 0.0002854
inclination: 28.4705°
perigee height: 536 km
apogee height: 540 km
right ascension of ascending node: 25.1989°
argument of perigee: 69.8430°
revolutions per day: 15.09245112
mean anomaly at epoch: 76.3814°
orbit number at epoch: 40507

The dashed part of the orbit path shows where the satellite is in the earth's shadow,  

DLR